Climatologie pour Saint-Brevin les Pins
Jour • Résumé pour février 9, 2018 Système :  Anglais    Métrique   Mixte
« - 1 jour
+ 1 jour »
Jour Semaine Mois Année Personnalisé
  Maximum : Minimum : Moyenne :
Température sous abri : TemperatureC °F 2.7 °F 6.3 °F
Point de rosée : DewpointC °F -0.6 °F 3.3 °F
Humidité : Humidity % 55 % 82 %
Vitesse du vent : WindSpeedKMH mph 0.0 mph 8.8 mph
Rafale : WindSpeedGustKMH mph - -
Direction :- - West
Pression : PressurehPa in 1012.1 in -
Précipitations : 4.3 in    
Historical Graphs
 
 
Tableau de données pour février 9, 2018
Heure Tempé Pt rosée Pression Vent Vitesse Rafale Humidité Taux pluie (/hr) Soleil
TemperatureC °F DewpointC °F PressurehPa in Calm     Humidity % HourlyPrecipMM in SolarRadiationWatts/m^2 W/m2 Conditions
00:00 3.1 °F 2.0 °F 1018.2 in South 6.4 mph 11.3 mph 93 % 0.0 in 0 W/m2
00:05 3.4 °F 2.4 °F 1018.2 in SSW 11.3 mph 11.3 mph 93 % 0.0 in 0 W/m2
00:10 3.8 °F 2.6 °F 1018.2 in SW 6.4 mph 11.3 mph 92 % 0.0 in 0 W/m2
00:15 3.9 °F 2.8 °F 1018.2 in SSW 3.2 mph 11.3 mph 92 % 0.0 in 0 W/m2
00:20 4.1 °F 2.8 °F 1018.2 in SSW 1.6 mph 9.7 mph 91 % 0.0 in 0 W/m2
00:25 4.2 °F 2.8 °F 1018.2 in South 3.2 mph 14.5 mph 91 % 0.0 in 0 W/m2
00:30 4.3 °F 2.8 °F 1018.2 in South 4.8 mph 14.5 mph 90 % 0.0 in 0 W/m2
00:35 4.3 °F 2.8 °F 1017.8 in SSW 9.7 mph 14.5 mph 90 % 0.0 in 0 W/m2
00:45 4.8 °F 3.2 °F 1018.2 in SSW 6.4 mph 14.5 mph 89 % 0.0 in 0 W/m2
00:50 5.0 °F 3.2 °F 1017.8 in South 6.4 mph 22.5 mph 88 % 0.0 in 0 W/m2
00:55 5.1 °F 3.1 °F 1017.8 in SSW 3.2 mph 22.5 mph 87 % 0.0 in 0 W/m2
01:00 5.3 °F 3.3 °F 1017.8 in South 4.8 mph 16.1 mph 87 % 0.0 in 0 W/m2
01:05 5.5 °F 3.5 °F 1017.8 in SSW 12.9 mph 17.7 mph 87 % 0.0 in 0 W/m2
01:10 5.6 °F 3.5 °F 1017.5 in SSW 6.4 mph 17.7 mph 86 % 0.0 in 0 W/m2
01:15 5.7 °F 3.5 °F 1017.5 in SSW 6.4 mph 24.1 mph 86 % 0.0 in 0 W/m2
01:20 5.8 °F 3.6 °F 1017.5 in SW 11.3 mph 24.1 mph 86 % 0.0 in 0 W/m2
01:30 5.8 °F 3.5 °F 1017.5 in SSW 8.0 mph 20.9 mph 85 % 0.0 in 0 W/m2
01:35 5.9 °F 3.6 °F 1017.2 in South 14.5 mph 20.9 mph 85 % 0.0 in 0 W/m2
01:40 5.9 °F 3.6 °F 1017.2 in SSW 8.0 mph 19.3 mph 85 % 0.0 in 0 W/m2
01:45 5.9 °F 3.6 °F 1017.2 in South 11.3 mph 20.9 mph 85 % 0.0 in 0 W/m2
01:50 5.9 °F 3.6 °F 1017.2 in SSW 16.1 mph 22.5 mph 85 % 0.0 in 0 W/m2
01:55 6.0 °F 3.8 °F 1017.2 in SSW 11.3 mph 22.5 mph 86 % 0.0 in 0 W/m2
02:00 6.0 °F 3.7 °F 1017.2 in South 25.7 mph 25.7 mph 85 % 0.0 in 0 W/m2
02:05 6.1 °F 3.7 °F 1016.8 in SW 9.7 mph 27.4 mph 85 % 0.0 in 0 W/m2
02:15 6.1 °F 3.9 °F 1016.8 in South 11.3 mph 19.3 mph 86 % 0.0 in 0 W/m2
02:20 6.2 °F 4.0 °F 1016.8 in South 16.1 mph 19.3 mph 86 % 0.0 in 0 W/m2
02:25 6.2 °F 4.0 °F 1016.8 in South 12.9 mph 20.9 mph 86 % 0.0 in 0 W/m2
02:30 6.2 °F 4.1 °F 1016.5 in SSW 4.8 mph 20.9 mph 86 % 0.0 in 0 W/m2
02:35 6.3 °F 4.1 °F 1016.5 in SSW 9.7 mph 19.3 mph 86 % 0.0 in 0 W/m2
02:40 6.3 °F 4.2 °F 1016.5 in South 12.9 mph 22.5 mph 86 % 0.0 in 0 W/m2
02:45 6.4 °F 4.3 °F 1016.5 in South 12.9 mph 22.5 mph 86 % 0.0 in 0 W/m2
02:50 6.4 °F 4.3 °F 1016.1 in SSW 20.9 mph 22.5 mph 86 % 0.0 in 0 W/m2
03:00 6.4 °F 4.3 °F 1016.1 in SSW 14.5 mph 24.1 mph 86 % 0.0 in 0 W/m2
03:05 6.4 °F 4.3 °F 1015.8 in SSW 9.7 mph 17.7 mph 86 % 0.0 in 0 W/m2
03:10 6.4 °F 4.4 °F 1015.8 in SSW 9.7 mph 17.7 mph 87 % 0.0 in 0 W/m2
03:15 6.3 °F 4.3 °F 1015.8 in SSW 11.3 mph 17.7 mph 87 % 0.0 in 0 W/m2
03:20 6.4 °F 4.4 °F 1015.8 in SSW 8.0 mph 14.5 mph 87 % 0.0 in 0 W/m2
03:25 6.6 °F 4.5 °F 1015.5 in South 8.0 mph 12.9 mph 87 % 0.0 in 0 W/m2
03:30 6.7 °F 4.4 °F 1015.5 in SSW 9.7 mph 16.1 mph 85 % 0.0 in 0 W/m2
03:35 6.9 °F 4.4 °F 1015.5 in South 6.4 mph 24.1 mph 84 % 0.0 in 0 W/m2
03:45 7.1 °F 4.4 °F 1015.1 in SSW 6.4 mph 20.9 mph 83 % 0.0 in 0 W/m2
03:50 7.0 °F 4.5 °F 1015.1 in SSW 6.4 mph 20.9 mph 84 % 0.0 in 0 W/m2
03:55 6.9 °F 4.6 °F 1014.8 in SSW 6.4 mph 19.3 mph 85 % 0.0 in 0 W/m2
04:00 7.0 °F 4.6 °F 1014.8 in WSW 6.4 mph 19.3 mph 85 % 0.0 in 0 W/m2
04:05 7.1 °F 4.7 °F 1014.8 in SSW 11.3 mph 17.7 mph 85 % 0.0 in 0 W/m2
04:10 7.2 °F 4.7 °F 1014.8 in SSW 3.2 mph 20.9 mph 84 % 0.0 in 0 W/m2
04:15 7.3 °F 4.8 °F 1014.8 in SW 19.3 mph 24.1 mph 84 % 0.0 in 0 W/m2
04:20 7.3 °F 4.8 °F 1014.4 in SW 8.0 mph 27.4 mph 84 % 0.0 in 0 W/m2
04:30 7.2 °F 4.9 °F 1014.1 in SSW 8.0 mph 17.7 mph 85 % 0.0 in 0 W/m2
04:35 7.2 °F 4.8 °F 1014.1 in SSW 1.6 mph 19.3 mph 85 % 0.0 in 0 W/m2
04:40 7.1 °F 4.9 °F 1014.1 in SW 8.0 mph 20.9 mph 86 % 0.0 in 0 W/m2
04:45 7.0 °F 5.0 °F 1014.1 in South 8.0 mph 20.9 mph 87 % 0.0 in 0 W/m2
04:50 6.9 °F 5.1 °F 1013.8 in South 9.7 mph 17.7 mph 88 % 0.0 in 0 W/m2
04:55 6.9 °F 5.1 °F 1013.8 in SSW 4.8 mph 25.7 mph 88 % 0.3 in 0 W/m2
05:00 6.9 °F 5.2 °F 1013.8 in South 3.2 mph 25.7 mph 89 % 0.3 in 0 W/m2
05:05 6.9 °F 5.2 °F 1013.8 in SSW 11.3 mph 22.5 mph 89 % 0.3 in 0 W/m2
05:15 6.9 °F 5.4 °F 1013.4 in SW 1.6 mph 22.5 mph 90 % 0.3 in 0 W/m2
05:20 6.9 °F 5.4 °F 1013.4 in South 12.9 mph 20.9 mph 90 % 0.3 in 0 W/m2
05:25 6.9 °F 5.4 °F 1013.4 in SSW 8.0 mph 20.9 mph 90 % 0.3 in 0 W/m2
05:30 6.9 °F 5.6 °F 1013.4 in SSE 9.7 mph 22.5 mph 91 % 0.3 in 0 W/m2
05:35 7.0 °F 5.6 °F 1013.4 in South 8.0 mph 22.5 mph 91 % 0.3 in 0 W/m2
05:40 7.1 °F 5.7 °F 1013.4 in SSW 6.4 mph 25.7 mph 91 % 0.5 in 0 W/m2
05:45 7.1 °F 5.7 °F 1013.1 in SW 11.3 mph 25.7 mph 91 % 0.5 in 0 W/m2
05:50 7.1 °F 5.7 °F 1013.1 in SSW 11.3 mph 25.7 mph 91 % 0.5 in 0 W/m2
06:00 7.1 °F 5.9 °F 1013.1 in South 9.7 mph 25.7 mph 92 % 0.5 in 0 W/m2
06:05 7.1 °F 5.9 °F 1013.1 in SSW 4.8 mph 25.7 mph 92 % 0.5 in 0 W/m2
06:10 7.2 °F 6.1 °F 1013.1 in SW 9.7 mph 27.4 mph 93 % 0.5 in 0 W/m2
06:15 7.2 °F 6.1 °F 1012.8 in SSW 11.3 mph 27.4 mph 93 % 0.5 in 0 W/m2
06:20 7.2 °F 6.2 °F 1012.8 in SW 11.3 mph 24.1 mph 93 % 0.5 in 0 W/m2
06:25 7.2 °F 6.2 °F 1012.8 in SSW 11.3 mph 32.2 mph 93 % 0.8 in 0 W/m2
06:30 7.3 °F 6.4 °F 1012.8 in SSW 17.7 mph 32.2 mph 94 % 0.8 in 0 W/m2
06:35 7.3 °F 6.4 °F 1012.8 in SSW 6.4 mph 32.2 mph 94 % 0.8 in 0 W/m2
06:45 7.5 °F 6.6 °F 1012.4 in SSW 6.4 mph 29.0 mph 94 % 0.5 in 0 W/m2
06:50 7.6 °F 6.8 °F 1012.8 in South 6.4 mph 25.7 mph 95 % 0.5 in 0 W/m2
06:55 7.7 °F 6.9 °F 1012.8 in SSE 16.1 mph 29.0 mph 95 % 1.0 in 0 W/m2
07:00 7.7 °F 6.9 °F 1012.8 in SSW 4.8 mph 29.0 mph 95 % 1.3 in 0 W/m2
07:05 7.8 °F 7.0 °F 1012.4 in South 11.3 mph 20.9 mph 95 % 1.5 in 0 W/m2
07:10 7.8 °F 7.1 °F 1012.8 in SSW 11.3 mph 33.8 mph 95 % 1.5 in 0 W/m2
07:15 7.9 °F 7.2 °F 1012.8 in SW 6.4 mph 33.8 mph 95 % 1.8 in 0 W/m2
07:20 7.9 °F 7.2 °F 1012.8 in WSW 14.5 mph 25.7 mph 95 % 2.0 in 0 W/m2
07:30 8.1 °F 7.3 °F 1012.8 in West 11.3 mph 19.3 mph 95 % 2.0 in 0 W/m2
07:35 8.2 °F 7.6 °F 1012.8 in West 12.9 mph 24.1 mph 96 % 2.3 in 0 W/m2
07:40 8.2 °F 7.6 °F 1012.4 in WNW 16.1 mph 24.1 mph 96 % 2.3 in 0 W/m2
07:45 8.0 °F 7.2 °F 1012.1 in WSW 6.4 mph 20.9 mph 95 % 2.3 in 0 W/m2
07:50 7.9 °F 7.2 °F 1012.1 in Calm   16.1 mph 95 % 2.3 in 0 W/m2
07:55 7.8 °F 7.1 °F 1012.1 in WSW 1.6 mph 11.3 mph 95 % 1.8 in 0 W/m2
08:00 7.7 °F 7.1 °F 1012.4 in West 1.6 mph 8.0 mph 96 % 1.5 in 0 W/m2
08:05 7.7 °F 6.9 °F 1012.4 in WNW 1.6 mph 8.0 mph 95 % 1.3 in 0 W/m2
08:15 7.5 °F 6.8 °F 1012.4 in West 6.4 mph 11.3 mph 95 % 0.8 in 0 W/m2
08:20 7.4 °F 6.6 °F 1012.4 in West 3.2 mph 11.3 mph 95 % 0.5 in 0 W/m2
08:25 7.3 °F 6.5 °F 1012.8 in WNW 3.2 mph 9.7 mph 95 % 0.5 in 0 W/m2
08:30 7.3 °F 6.7 °F 1012.8 in Calm   8.0 mph 96 % 0.5 in 0 W/m2
08:35 7.4 °F 6.8 °F 1012.8 in West 3.2 mph 8.0 mph 96 % 0.3 in 0 W/m2
08:40 7.4 °F 6.8 °F 1012.8 in WNW 3.2 mph 9.7 mph 96 % 0.0 in 0 W/m2
08:45 7.6 °F 7.0 °F 1012.8 in West 1.6 mph 9.7 mph 96 % 0.0 in 5 W/m2
08:50 7.7 °F 7.1 °F 1013.1 in WNW 8.0 mph 17.7 mph 96 % 0.0 in 7 W/m2
09:00 7.8 °F 7.2 °F 1013.1 in WNW 6.4 mph 19.3 mph 96 % 0.0 in 9 W/m2
09:05 7.8 °F 7.2 °F 1013.1 in WNW 12.9 mph 16.1 mph 96 % 0.0 in 12 W/m2
09:10 7.8 °F 7.2 °F 1013.1 in WNW 4.8 mph 20.9 mph 96 % 0.0 in 19 W/m2
09:15 7.8 °F 7.2 °F 1013.4 in NW 11.3 mph 20.9 mph 96 % 0.0 in 7 W/m2
09:20 7.8 °F 7.2 °F 1013.4 in WNW 9.7 mph 20.9 mph 96 % 0.0 in 12 W/m2
09:25 7.8 °F 7.2 °F 1013.4 in NW 6.4 mph 27.4 mph 96 % 0.3 in 7 W/m2
09:30 7.6 °F 7.0 °F 1013.4 in NNW 12.9 mph 38.6 mph 96 % 0.5 in 19 W/m2
09:35 7.4 °F 6.8 °F 1013.8 in WNW 16.1 mph 38.6 mph 96 % 0.5 in 33 W/m2
09:40 7.3 °F 6.7 °F 1013.8 in NNW 20.9 mph 29.0 mph 96 % 0.5 in 30 W/m2
09:50 6.9 °F 6.4 °F 1014.1 in NW 12.9 mph 30.6 mph 96 % 0.8 in 42 W/m2
10:00 6.7 °F 6.1 °F 1014.4 in NW 3.2 mph 27.4 mph 96 % 0.8 in 46 W/m2
10:05 6.7 °F 6.1 °F 1014.4 in NNW 16.1 mph 27.4 mph 96 % 0.8 in 49 W/m2
10:10 6.7 °F 6.1 °F 1014.4 in WNW 1.6 mph 22.5 mph 96 % 0.8 in 40 W/m2
10:15 6.5 °F 5.9 °F 1014.4 in NNW 16.1 mph 30.6 mph 96 % 0.8 in 74 W/m2
10:20 6.4 °F 5.8 °F 1014.8 in NW 9.7 mph 32.2 mph 96 % 0.8 in 65 W/m2
10:30 6.1 °F 5.5 °F 1015.1 in NNW 11.3 mph 24.1 mph 96 % 0.5 in 83 W/m2
10:35 6.0 °F 5.4 °F 1015.1 in NNW 8.0 mph 20.9 mph 96 % 0.5 in 81 W/m2
10:40 5.9 °F 5.4 °F 1015.1 in NNW 8.0 mph 20.9 mph 96 % 0.3 in 88 W/m2
10:45 6.0 °F 5.4 °F 1015.1 in NNW 9.7 mph 19.3 mph 96 % 0.0 in 93 W/m2
10:50 5.9 °F 5.4 °F 1015.5 in NNW 6.4 mph 19.3 mph 96 % 0.0 in 93 W/m2
10:55 6.1 °F 5.5 °F 1015.5 in NW 8.0 mph 19.3 mph 96 % 0.0 in 134 W/m2
11:00 6.3 °F 5.5 °F 1015.5 in North 8.0 mph 20.9 mph 95 % 0.0 in 132 W/m2
11:05 6.2 °F 5.4 °F 1015.5 in NW 6.4 mph 20.9 mph 95 % 0.0 in 128 W/m2
11:15 6.2 °F 5.3 °F 1015.5 in NNW 6.4 mph 22.5 mph 94 % 0.0 in 149 W/m2
11:20 6.3 °F 5.4 °F 1015.8 in WNW 16.1 mph 20.9 mph 94 % 0.0 in 165 W/m2
11:25 6.4 °F 5.4 °F 1015.8 in North 6.4 mph 20.9 mph 93 % 0.0 in 158 W/m2
11:30 6.5 °F 5.3 °F 1015.8 in NNW 9.7 mph 19.3 mph 92 % 0.0 in 137 W/m2
11:35 6.3 °F 5.0 °F 1015.8 in NNW 1.6 mph 16.1 mph 91 % 0.0 in 51 W/m2
11:40 6.7 °F 5.6 °F 1015.8 in NW 6.4 mph 24.1 mph 93 % 0.0 in 399 W/m2
11:45 7.4 °F 6.0 °F 1015.8 in NW 3.2 mph 24.1 mph 91 % 0.0 in 422 W/m2
11:50 7.8 °F 6.1 °F 1016.1 in NW 14.5 mph 19.3 mph 89 % 0.0 in 192 W/m2
12:00 7.4 °F 5.2 °F 1016.1 in NNW 20.9 mph 29.0 mph 86 % 0.0 in 185 W/m2
12:05 7.8 °F 5.4 °F 1016.1 in NNW 6.4 mph 30.6 mph 85 % 0.0 in 454 W/m2
12:10 8.2 °F 5.5 °F 1016.1 in WNW 9.7 mph 30.6 mph 83 % 0.0 in 450 W/m2
12:15 8.4 °F 5.5 °F 1016.1 in NNE 17.7 mph 29.0 mph 82 % 0.0 in 490 W/m2
12:20 8.4 °F 5.3 °F 1016.5 in NNW 11.3 mph 32.2 mph 81 % 0.0 in 457 W/m2
12:25 8.8 °F 5.9 °F 1016.5 in NNW 9.7 mph 32.2 mph 82 % 0.0 in 464 W/m2
12:30 8.8 °F 5.2 °F 1016.1 in NW 6.4 mph 27.4 mph 78 % 0.0 in 461 W/m2
12:35 8.6 °F 3.8 °F 1016.5 in NNE 6.4 mph 33.8 mph 72 % 0.0 in 461 W/m2
12:45 9.1 °F 4.7 °F 1016.1 in NNW 12.9 mph 35.4 mph 74 % 0.0 in 475 W/m2
12:50 9.1 °F 4.1 °F 1016.5 in North 17.7 mph 29.0 mph 71 % 0.0 in 476 W/m2
12:55 9.2 °F 3.4 °F 1016.5 in NW 6.4 mph 29.0 mph 67 % 0.0 in 480 W/m2
13:00 9.2 °F 4.0 °F 1016.5 in NNW 12.9 mph 29.0 mph 70 % 0.0 in 478 W/m2
13:05 9.3 °F 3.3 °F 1016.5 in NNW 12.9 mph 29.0 mph 66 % 0.0 in 478 W/m2
13:10 9.5 °F 4.5 °F 1016.5 in NNW 16.1 mph 25.7 mph 71 % 0.0 in 482 W/m2
13:15 9.3 °F 2.9 °F 1016.5 in NW 11.3 mph 30.6 mph 64 % 0.0 in 483 W/m2
13:20 9.6 °F 3.7 °F 1016.5 in NW 14.5 mph 35.4 mph 67 % 0.0 in 478 W/m2
13:30 9.6 °F 3.7 °F 1016.8 in WNW 11.3 mph 33.8 mph 67 % 0.0 in 483 W/m2
13:35 9.7 °F 3.5 °F 1016.8 in North 12.9 mph 33.8 mph 65 % 0.0 in 490 W/m2
13:40 9.6 °F 2.5 °F 1016.8 in North 16.1 mph 30.6 mph 61 % 0.0 in 482 W/m2
13:45 9.6 °F 2.9 °F 1016.8 in NNE 14.5 mph 30.6 mph 63 % 0.0 in 489 W/m2
13:50 9.3 °F 2.2 °F 1016.8 in NNW 9.7 mph 29.0 mph 61 % 0.0 in 239 W/m2
13:55 9.8 °F 3.7 °F 1016.8 in NNW 24.1 mph 29.0 mph 66 % 0.0 in 524 W/m2
14:00 10.3 °F 3.8 °F 1016.8 in North 16.1 mph 27.4 mph 64 % 0.0 in 522 W/m2
14:05 10.4 °F 3.0 °F 1016.8 in NW 14.5 mph 27.4 mph 60 % 0.0 in 517 W/m2
14:15 10.6 °F 3.6 °F 1016.8 in NW 16.1 mph 27.4 mph 62 % 0.0 in 592 W/m2
14:20 10.7 °F 4.4 °F 1016.8 in NNW 19.3 mph 27.4 mph 65 % 0.0 in 561 W/m2
14:25 10.6 °F 3.1 °F 1016.8 in NW 16.1 mph 29.0 mph 60 % 0.0 in 483 W/m2
14:30 9.7 °F 1.6 °F 1016.8 in NW 22.5 mph 29.0 mph 57 % 0.0 in 461 W/m2
14:35 9.6 °F 1.0 °F 1016.8 in NNW 17.7 mph 30.6 mph 55 % 0.0 in 483 W/m2
14:40 10.1 °F 2.6 °F 1017.2 in NNW 9.7 mph 32.2 mph 60 % 0.0 in 552 W/m2
14:45 10.4 °F 3.2 °F 1017.2 in North 8.0 mph 32.2 mph 61 % 0.0 in 642 W/m2
14:50 10.2 °F 3.3 °F 1017.5 in NNE 12.9 mph 33.8 mph 62 % 0.0 in 142 W/m2
15:00 8.6 °F 3.0 °F 1017.5 in NNW 12.9 mph 30.6 mph 68 % 0.3 in 457 W/m2
15:05 8.9 °F 1.6 °F 1017.5 in NW 3.2 mph 27.4 mph 60 % 0.3 in 475 W/m2
15:10 9.1 °F 1.9 °F 1017.5 in NW 9.7 mph 32.2 mph 61 % 0.3 in 104 W/m2
15:15 7.9 °F 2.4 °F 1017.5 in NNW 14.5 mph 32.2 mph 68 % 0.3 in 81 W/m2
15:20 7.4 °F 2.1 °F 1017.5 in NNW 14.5 mph 27.4 mph 69 % 0.3 in 141 W/m2
15:25 8.3 °F 2.6 °F 1017.5 in NNW 8.0 mph 27.4 mph 67 % 0.3 in 378 W/m2
15:30 8.8 °F 1.9 °F 1017.8 in NW 9.7 mph 24.1 mph 62 % 0.3 in 355 W/m2
15:35 8.9 °F 2.4 °F 1017.5 in NW 4.8 mph 24.1 mph 64 % 0.3 in 343 W/m2
15:45 8.8 °F 1.7 °F 1017.5 in North 11.3 mph 27.4 mph 61 % 0.3 in 325 W/m2
15:50 8.9 °F 2.3 °F 1017.8 in NW 8.0 mph 27.4 mph 63 % 0.3 in 330 W/m2
15:55 8.9 °F 2.7 °F 1017.8 in NW 14.5 mph 25.7 mph 65 % 0.0 in 297 W/m2
16:00 8.8 °F 2.6 °F 1017.5 in NW 8.0 mph 30.6 mph 65 % 0.0 in 345 W/m2
16:05 8.4 °F 2.0 °F 1017.8 in NW 17.7 mph 30.6 mph 64 % 0.0 in 295 W/m2
16:10 8.8 °F 3.0 °F 1017.8 in NNW 12.9 mph 27.4 mph 67 % 0.0 in 276 W/m2
16:15 8.8 °F 2.1 °F 1017.8 in NW 14.5 mph 27.4 mph 63 % 0.0 in 258 W/m2
16:20 8.4 °F 0.1 °F 1017.8 in North 8.0 mph 35.4 mph 56 % 0.0 in 220 W/m2
16:30 8.1 °F 0.8 °F 1017.8 in North 22.5 mph 29.0 mph 60 % 0.0 in 127 W/m2
16:35 7.9 °F 0.8 °F 1017.8 in NNW 9.7 mph 37.0 mph 61 % 0.0 in 47 W/m2
16:40 7.7 °F 1.1 °F 1018.2 in NW 14.5 mph 37.0 mph 63 % 0.0 in 79 W/m2
16:45 7.7 °F 1.3 °F 1018.2 in North 16.1 mph 30.6 mph 64 % 0.0 in 105 W/m2
16:50 7.6 °F 0.7 °F 1018.2 in NW 14.5 mph 29.0 mph 62 % 0.0 in 60 W/m2
16:55 7.3 °F 1.0 °F 1018.2 in NNW 22.5 mph 29.0 mph 64 % 0.0 in 91 W/m2
17:00 7.2 °F 0.6 °F 1018.2 in North 11.3 mph 27.4 mph 63 % 0.0 in 37 W/m2
17:05 6.9 °F 0.8 °F 1018.5 in NW 11.3 mph 29.0 mph 65 % 0.0 in 46 W/m2
17:15 6.6 °F 1.1 °F 1018.5 in NW 9.7 mph 27.4 mph 68 % 0.0 in 32 W/m2
17:20 6.4 °F 0.9 °F 1018.5 in North 6.4 mph 24.1 mph 68 % 0.0 in 30 W/m2
17:25 6.3 °F 0.6 °F 1018.5 in NNW 11.3 mph 25.7 mph 67 % 0.0 in 28 W/m2
17:30 6.2 °F 0.5 °F 1018.8 in NNE 11.3 mph 25.7 mph 67 % 0.0 in 28 W/m2
17:35 6.1 °F 0.6 °F 1018.8 in NNW 9.7 mph 24.1 mph 68 % 0.0 in 26 W/m2
17:40 6.0 °F 0.7 °F 1018.8 in NW 6.4 mph 20.9 mph 69 % 0.0 in 25 W/m2
17:45 5.8 °F 0.8 °F 1018.8 in NW 9.7 mph 22.5 mph 70 % 0.0 in 23 W/m2
17:50 5.7 °F 0.7 °F 1018.8 in NNW 9.7 mph 22.5 mph 70 % 0.0 in 19 W/m2
18:00 5.3 °F 0.8 °F 1019.2 in NNW 6.4 mph 16.1 mph 73 % 0.0 in 14 W/m2
18:05 5.1 °F 0.7 °F 1019.2 in NNW 19.3 mph 19.3 mph 73 % 0.0 in 12 W/m2
18:10 5.0 °F 0.7 °F 1019.5 in NW 1.6 mph 19.3 mph 74 % 0.0 in 11 W/m2
18:15 5.0 °F 0.7 °F 1019.5 in North 8.0 mph 25.7 mph 74 % 0.0 in 7 W/m2
18:20 5.1 °F 0.6 °F 1019.5 in NNW 9.7 mph 25.7 mph 73 % 0.0 in 5 W/m2
18:25 5.1 °F 0.2 °F 1019.9 in NNE 6.4 mph 22.5 mph 71 % 0.0 in 0 W/m2
18:30 5.1 °F -0.2 °F 1019.9 in NNW 11.3 mph 24.1 mph 69 % 0.0 in 0 W/m2
18:35 5.1 °F -0.1 °F 1020.2 in NW 8.0 mph 24.1 mph 69 % 0.0 in 0 W/m2
18:45 4.8 °F -0.2 °F 1020.2 in NNW 6.4 mph 19.3 mph 70 % 0.0 in 0 W/m2
18:50 4.5 °F -0.1 °F 1020.2 in NNW 6.4 mph 19.3 mph 72 % 0.0 in 0 W/m2
18:55 4.5 °F -0.1 °F 1020.5 in NNW 4.8 mph 16.1 mph 72 % 0.0 in 0 W/m2
19:00 4.4 °F -0.2 °F 1020.5 in NW 9.7 mph 16.1 mph 72 % 0.0 in 0 W/m2
19:05 4.4 °F 0.0 °F 1020.5 in NW 8.0 mph 14.5 mph 73 % 0.0 in 0 W/m2
19:10 4.3 °F 0.0 °F 1020.5 in NNW 1.6 mph 16.1 mph 74 % 0.0 in 0 W/m2
19:15 4.2 °F 0.0 °F 1020.9 in NNW 8.0 mph 16.1 mph 74 % 0.0 in 0 W/m2
19:20 4.1 °F 0.1 °F 1020.9 in NNW 8.0 mph 12.9 mph 75 % 0.0 in 0 W/m2
19:30 3.8 °F -0.1 °F 1020.9 in NW 4.8 mph 11.3 mph 76 % 0.0 in 0 W/m2
19:35 3.6 °F 0.0 °F 1021.2 in NNW 4.8 mph 12.9 mph 77 % 0.0 in 0 W/m2
19:40 3.7 °F 0.0 °F 1021.2 in NW 4.8 mph 12.9 mph 77 % 0.0 in 0 W/m2
19:45 3.7 °F -0.1 °F 1021.2 in NW 3.2 mph 11.3 mph 76 % 0.0 in 0 W/m2
19:50 3.6 °F -0.2 °F 1021.2 in WNW 3.2 mph 11.3 mph 76 % 0.0 in 0 W/m2
19:55 3.4 °F -0.2 °F 1021.2 in WNW 1.6 mph 9.7 mph 77 % 0.0 in 0 W/m2
20:00 3.3 °F -0.3 °F 1021.2 in NNW 9.7 mph 9.7 mph 77 % 0.0 in 0 W/m2
20:05 3.2 °F -0.3 °F 1021.2 in NW 4.8 mph 9.7 mph 78 % 0.0 in 0 W/m2
20:15 2.9 °F -0.4 °F 1021.6 in NW 8.0 mph 12.9 mph 79 % 0.0 in 0 W/m2
20:20 2.8 °F -0.3 °F 1021.6 in NNW 3.2 mph 12.9 mph 80 % 0.0 in 0 W/m2
20:25 2.9 °F -0.2 °F 1021.6 in NNW 1.6 mph 12.9 mph 80 % 0.0 in 0 W/m2
20:30 3.0 °F -0.3 °F 1021.6 in WNW 3.2 mph 12.9 mph 79 % 0.0 in 0 W/m2
20:35 3.1 °F -0.2 °F 1021.6 in NNW 8.0 mph 14.5 mph 79 % 0.0 in 0 W/m2
20:40 3.3 °F -0.2 °F 1021.9 in WNW 6.4 mph 14.5 mph 78 % 0.0 in 0 W/m2
20:45 3.3 °F -0.2 °F 1021.9 in NW 8.0 mph 12.9 mph 78 % 0.0 in 0 W/m2
20:50 3.3 °F -0.2 °F 1021.9 in WNW 3.2 mph 12.9 mph 78 % 0.0 in 0 W/m2
21:00 3.1 °F -0.4 °F 1021.9 in WNW 3.2 mph 11.3 mph 78 % 0.0 in 0 W/m2
21:05 3.1 °F -0.4 °F 1021.9 in Calm   11.3 mph 78 % 0.0 in 0 W/m2
21:10 2.8 °F -0.5 °F 1022.2 in Calm   11.3 mph 79 % 0.0 in 0 W/m2
21:15 2.8 °F -0.5 °F 1022.2 in WNW 4.8 mph 8.0 mph 79 % 0.0 in 0 W/m2
21:20 2.8 °F -0.5 °F 1022.2 in WNW 6.4 mph 9.7 mph 79 % 0.0 in 0 W/m2
21:25 2.7 °F -0.6 °F 1022.2 in NW 3.2 mph 11.3 mph 79 % 0.0 in 0 W/m2
21:30 2.8 °F -0.3 °F 1022.6 in NW 1.6 mph 11.3 mph 80 % 0.0 in 0 W/m2
21:35 2.9 °F -0.2 °F 1022.2 in NW 4.8 mph 9.7 mph 80 % 0.0 in 0 W/m2
21:45 2.9 °F 0.0 °F 1022.6 in NW 3.2 mph 11.3 mph 81 % 0.0 in 0 W/m2
21:50 3.1 °F 0.1 °F 1022.6 in WNW 1.6 mph 11.3 mph 81 % 0.0 in 0 W/m2
21:55 3.2 °F 0.2 °F 1022.6 in NW 1.6 mph 11.3 mph 81 % 0.0 in 0 W/m2
22:00 3.1 °F 0.1 °F 1022.6 in NNW 1.6 mph 11.3 mph 81 % 0.0 in 0 W/m2
22:05 3.1 °F 0.2 °F 1022.6 in NW 3.2 mph 12.9 mph 81 % 0.0 in 0 W/m2
22:10 3.1 °F 0.1 °F 1022.6 in NW 3.2 mph 12.9 mph 81 % 0.0 in 0 W/m2
22:15 3.1 °F 0.3 °F 1022.9 in WNW 6.4 mph 12.9 mph 82 % 0.0 in 0 W/m2
22:20 3.1 °F 0.3 °F 1022.9 in NW 6.4 mph 12.9 mph 82 % 0.0 in 0 W/m2
22:30 2.9 °F 0.3 °F 1022.9 in WNW 1.6 mph 11.3 mph 83 % 0.0 in 0 W/m2
22:35 3.0 °F 0.4 °F 1022.9 in West 3.2 mph 14.5 mph 83 % 0.0 in 0 W/m2
22:40 2.9 °F 0.5 °F 1023.2 in NW 3.2 mph 14.5 mph 84 % 0.0 in 0 W/m2
22:45 3.0 °F 0.6 °F 1023.2 in NW 8.0 mph 11.3 mph 84 % 0.0 in 0 W/m2
22:50 3.1 °F 0.6 °F 1023.2 in WNW 6.4 mph 12.9 mph 84 % 0.0 in 0 W/m2
22:55 3.1 °F 0.7 °F 1023.2 in NW 3.2 mph 14.5 mph 84 % 0.0 in 0 W/m2
23:00 3.3 °F 1.0 °F 1023.2 in NW 1.6 mph 14.5 mph 85 % 0.0 in 0 W/m2
23:05 3.3 °F 0.9 °F 1022.9 in NW 8.0 mph 14.5 mph 84 % 0.0 in 0 W/m2
23:15 3.3 °F 0.9 °F 1022.9 in NNW 3.2 mph 12.9 mph 84 % 0.0 in 0 W/m2
23:20 3.2 °F 0.9 °F 1022.9 in NW 3.2 mph 9.7 mph 85 % 0.0 in 0 W/m2
23:25 3.2 °F 0.9 °F 1022.9 in NW 8.0 mph 11.3 mph 85 % 0.0 in 0 W/m2
23:30 3.2 °F 0.9 °F 1022.9 in WNW 4.8 mph 11.3 mph 85 % 0.0 in 0 W/m2
23:35 3.2 °F 1.0 °F 1022.9 in NW 6.4 mph 12.9 mph 86 % 0.0 in 0 W/m2
23:40 3.1 °F 1.0 °F 1022.9 in NNW 9.7 mph 12.9 mph 86 % 0.0 in 0 W/m2
23:45 3.1 °F 0.9 °F 1023.2 in WNW 3.2 mph 12.9 mph 86 % 0.0 in 0 W/m2
23:50 3.0 °F 1.0 °F 1023.2 in NW 6.4 mph 14.5 mph 87 % 0.0 in 0 W/m2
Avec l'autorisation de Weather Underground - 1.5 mb